Location: Unspecified
(0.0000°N, 0.0000°E)
Time: 11:30:37
(UTC+00:00)

Courier 1B Rocket - Pass Details

Date: 27 November 2019
Orbit: 920 x 1202 km, 28.2° (Epoch: 07 December)

Event Time Altitude Azimuth Distance (km) Brightness Sun altitude
Rises 17:40:42 0° 317° (NW) 3,869 8.4 1.6°
Reaches altitude 10° 17:43:42 10° 327° (NNW) 2,958 7.7 0.9°
Maximum altitude 17:50:10 33° 29° (NNE) 1,832 6.1 -0.6°
Drops below altitude 10° 17:56:55 10° 90° (E) 3,105 7.1 -2.2°
Sets 18:00:08 0° 99° (E) 4,086 7.7 -2.9°
